Zurück zum Katalog

HMU-SAT2

AktivWissenschaftVLEO
NORAD 67688·PAYLOAD·🇯🇵 Japan

Gestartet Nov 20, 1998 von Baikonur Cosmodrome

Loading…

Nächste Überflüge (nächste 24 Stunden)

TLE

AktuellSource: Space-Track

Epoche: Sep 14, 2026, 05:27 UTC

1 67688U 98067YE  26257.22753096  .00118805  00000-0  68475-3 0  9997
2 67688  51.6249 198.5732 0007881 132.7318 227.4347 15.77775365 34209

Verfolge HMU-SAT2 in Echtzeit mit AllMySat

Download on the App Store